sat.trackr.live / text

‹ back to catalog

STARLINK-30117

NORAD 56702 · 2023-067Q

PAYLOAD ACTIVE UNKNOWN

§ Identity

Operator
Country
US
Launch date
2023-05-19
Launch site
AFETR
Launch vehicle
Mass (kg)
RCS (m²)

Purposes: comms

External: N2YO · Heavens-Above · Gunter

§ Orbital elements

Epoch: 2026-05-24T15:30:40.809024Z

Period
94.27 min
Inclination
43.0018°
Eccentricity
0.0001428
Mean motion
15.27581678 rev/d
Perigee alt
482.1 km
Apogee alt
484.0 km
Semi-major
6,861.2 km
B*
4.3239e-5
RAAN
209.0957°
Arg perigee
259.0033°
Mean anomaly
101.0658°
Rev number
16,723

§ Raw data

STARLINK-301171 56702U 23067Q   26144.64630566  .00000928  00000+0  43239-4 0  99942 56702  43.0018 209.0957 0001428 259.0033 101.0658 15.27581678167237

JSON: /api/v1/satellites/56702 · /tle

For live sub-satellite position, see the globe view (requires WebGL).

§ Visibility from observer

Set your observer location to see the next 7 days of passes ≥ 10°. The values pass through the URL so the page stays shareable.

No JS? Fill the form by hand. The geolocation button needs JavaScript.